Location: Unspecified
(0.0000°N, 0.0000°E)
Time: 12:32:22
(UTC+00:00)

Envisat - Pass Details

Date: 04 April 2020
Orbit: 764 x 766 km, 98.1° (Epoch: 02 April)

Event Time Altitude Azimuth Distance (km) Brightness Sun altitude
Rises 18:55:32 0° 193° (SSW) 3,230 6.3 -13.1°
Reaches altitude 10° 18:58:19 10° 208° (SSW) 2,301 5.8 -13.8°
Maximum altitude 19:02:08 22° 258° (WSW) 1,637 5.6 -14.7°
Drops below altitude 10° 19:05:56 10° 307° (NW) 2,293 6.4 -15.7°
Sets 19:08:44 0° 322° (NW) 3,215 6.9 -16.4°
